GFSMW_700_temp_000.txt.gz
Temp
7 7 6 5 4 4 4 3 3 2 2 2 2 3 2 1 1 0 -1 -1 -1 -1 -2 -2 -2 -2 -2 -2 -3 -3 -2 -2 -2 -3 -3 -3 -3 -3 -3 -3 -4 -3 -3
6 6 6 5 4 4 4 3 3 3 2 2 2 2 1 1 -0 -1 -1 -1 -2 -3 -2 -3 -3 -3 -2 -2 -3 -3 -3 -3 -3 -3 -3 -3 -3 -3 -3 -3 -4 -3 -3
5 5 5 5 4 4 3 3 3 3 2 2 1 1 0 -0 -1 -1 -2 -3 -3 -3 -2 -3 -3 -3 -3 -3 -4 -4 -4 -4 -4 -4 -5 -5 -4 -4 -3 -3 -3 -4 -4
3 2 3 4 3 3 3 2 2 2 2 1 0 -0 -1 -1 -1 -2 -2 -2 -2 -3 -3 -4 -4 -5 -5 -5 -5 -5 -5 -5 -5 -4 -4 -4 -5 -5 -4 -4 -4 -4 -4
2 2 2 3 3 3 2 2 1 1 1 1 0 0 -1 -2 -1 -2 -2 -2 -2 -3 -5 -5 -5 -5 -5 -5 -5 -5 -5 -5 -5 -5 -5 -5 -6 -7 -8 -7 -6 -5 -5
1 1 2 2 2 2 1 1 1 0 0 -0 -0 -1 -2 -2 -2 -2 -2 -2 -4 -5 -5 -5 -5 -5 -5 -5 -6 -6 -6 -7 -7 -8 -9 -9 -9 -8 -9 -9 -8 -8 -7
1 0 -0 -0 1 1 0 0 -0 -1 -1 -2 -1 -2 -2 -2 -2 -3 -4 -4 -5 -5 -5 -5 -5 -6 -6 -7 -7 -8 -9 -9 -10 -10 -11 -11 -11 -11 -11 -11 -10 -10 -9
0 -0 -0 -0 -1 -1 -0 -1 -0 -1 -1 -2 -2 -2 -3 -3 -4 -4 -5 -5 -6 -6 -6 -6 -7 -7 -7 -8 -8 -9 -10 -11 -12 -11 -11 -11 -11 -11 -11 -11 -11 -11 -10
0 -0 -1 -2 -1 -2 -2 -2 -2 -3 -3 -3 -2 -3 -3 -5 -5 -5 -6 -7 -6 -6 -7 -7 -8 -8 -9 -10 -10 -12 -12 -12 -12 -12 -12 -12 -12 -12 -12 -11 -11 -12 -11
-1 -1 -1 -1 -1 -2 -2 -2 -3 -3 -3 -4 -4 -5 -5 -6 -5 -6 -7 -7 -7 -7 -8 -8 -9 -10 -11 -11 -12 -12 -13 -13 -13 -13 -13 -13 -13 -13 -13 -13 -13 -13 -13
0 -1 -2 -2 -2 -2 -2 -2 -4 -4 -4 -5 -5 -5 -6 -6 -7 -8 -8 -8 -8 -9 -9 -10 -11 -12 -12 -12 -13 -13 -13 -14 -14 -14 -14 -13 -13 -13 -14 -14 -14 -14 -14
-0 -1 -1 -1 -2 -3 -3 -4 -5 -5 -4 -5 -5 -6 -7 -8 -8 -8 -8 -8 -9 -10 -11 -11 -12 -12 -13 -13 -14 -13 -14 -14 -14 -14 -14 -15 -15 -14 -14 -14 -14 -15 -15
-1 -1 -2 -3 -3 -3 -3 -3 -4 -4 -5 -6 -6 -7 -8 -8 -8 -9 -9 -9 -11 -11 -12 -13 -13 -14 -14 -14 -15 -16 -16 -16 -16 -16 -16 -16 -16 -16 -16 -16 -16 -16 -16
-2 -3 -3 -3 -3 -3 -3 -4 -6 -7 -7 -7 -8 -8 -9 -9 -9 -10 -11 -12 -12 -13 -14 -15 -15 -16 -16 -17 -16 -16 -16 -16 -16 -16 -16 -17 -17 -17 -17 -17 -17 -17 -17
-2 -3 -3 -3 -4 -4 -5 -7 -8 -8 -9 -8 -8 -9 -10 -10 -10 -11 -12 -13 -14 -15 -15 -16 -16 -17 -17 -17 -16 -16 -16 -16 -17 -17 -17 -17 -17 -17 -17 -17 -17 -18 -17
-3 -4 -4 -4 -6 -7 -8 -8 -8 -9 -9 -9 -9 -10 -10 -10 -11 -12 -13 -13 -15 -15 -16 -16 -17 -17 -17 -17 -17 -16 -17 -17 -17 -17 -17 -18 -18 -18 -19 -19 -18 -18 -17
-4 -4 -5 -8 -8 -8 -8 -9 -9 -9 -10 -10 -10 -10 -10 -11 -11 -12 -13 -14 -15 -15 -16 -17 -17 -17 -17 -17 -17 -17 -18 -18 -18 -18 -18 -18 -18 -18 -19 -19 -19 -18 -17
-5 -6 -8 -9 -9 -9 -10 -10 -10 -10 -10 -11 -11 -11 -11 -11 -12 -12 -14 -14 -15 -16 -17 -17 -17 -17 -17 -17 -18 -18 -18 -18 -18 -18 -18 -18 -18 -19 -19 -19 -18 -18 -18
-7 -8 -9 -9 -9 -10 -10 -10 -10 -11 -12 -12 -12 -11 -11 -13 -13 -13 -14 -15 -15 -16 -17 -17 -17 -17 -17 -17 -17 -18 -18 -19 -19 -19 -19 -19 -19 -19 -19 -19 -19 -18 -18
-8 -9 -9 -10 -10 -11 -11 -11 -12 -12 -13 -12 -12 -12 -12 -13 -13 -13 -14 -15 -16 -16 -17 -17 -17 -17 -17 -17 -18 -18 -19 -19 -19 -19 -20 -20 -20 -20 -20 -19 -19 -18 -18
-9 -9 -10 -10 -11 -11 -11 -12 -12 -13 -13 -13 -13 -13 -13 -14 -13 -14 -15 -16 -16 -17 -16 -17 -17 -17 -17 -18 -18 -19 -19 -19 -19 -19 -20 -20 -21 -20 -20 -20 -19 -19 -18
-10 -10 -10 -11 -11 -11 -12 -13 -13 -13 -12 -13 -13 -14 -14 -14 -14 -15 -15 -16 -17 -16 -16 -17 -17 -17 -17 -18 -18 -19 -19 -19 -19 -19 -19 -20 -20 -20 -20 -19 -19 -18 -18
-10 -10 -11 -11 -12 -13 -13 -13 -13 -13 -13 -13 -13 -14 -14 -15 -15 -16 -16 -16 -16 -16 -17 -17 -16 -17 -17 -18 -18 -18 -19 -19 -19 -19 -19 -19 -19 -19 -19 -19 -19 -19 -18
-10 -11 -11 -12 -12 -12 -13 -13 -13 -13 -13 -13 -14 -14 -14 -15 -15 -15 -16 -15 -16 -16 -16 -16 -16 -17 -17 -17 -18 -18 -18 -18 -18 -19 -19 -19 -19 -19 -19 -19 -19 -19 -18
-11 -11 -12 -12 -12 -13 -13 -12 -13 -13 -13 -13 -14 -14 -15 -15 -15 -15 -15 -15 -16 -16 -16 -17 -17 -17 -17 -17 -18 -17 -17 -18 -18 -18 -19 -18 -18 -18 -18 -18 -18 -18 -18
-11 -11 -12 -12 -12 -12 -13 -13 -13 -13 -13 -14 -14 -15 -15 -15 -15 -15 -15 -16 -16 -16 -16 -17 -16 -17 -17 -17 -17 -18 -18 -18 -18 -18 -18 -18 -18 -18 -18 -17 -17 -18 -18

GFSMW_700_temp_006.txt.gz
Temp
7 6 5 5 4 4 4 4 3 3 3 2 2 1 1 1 0 0 -0 -1 -1 -2 -2 -2 -1 -2 -1 -2 -3 -3 -3 -3 -3 -3 -3 -3 -3 -3 -4 -4 -4 -4 -4
6 6 6 5 4 4 4 3 3 2 1 1 1 1 1 0 -0 -1 -1 -1 -1 -2 -2 -2 -2 -2 -3 -3 -4 -4 -4 -4 -4 -4 -4 -4 -3 -3 -4 -4 -4 -4 -4
6 5 5 5 4 3 3 2 2 1 1 1 1 1 -0 -1 -1 -1 -1 -1 -1 -1 -2 -2 -3 -4 -4 -5 -5 -6 -6 -6 -6 -5 -5 -5 -5 -5 -4 -4 -4 -4 -4
6 5 5 3 3 2 2 1 1 1 1 1 0 0 -0 -0 -1 -1 -1 -2 -2 -2 -2 -3 -5 -6 -6 -5 -6 -6 -7 -7 -7 -6 -6 -6 -6 -6 -5 -5 -5 -5 -5
5 5 4 3 2 2 2 1 1 1 1 0 1 0 -0 -0 -1 -1 -2 -2 -2 -3 -5 -6 -7 -6 -6 -7 -7 -7 -7 -6 -7 -7 -8 -8 -8 -10 -10 -8 -7 -8 -7
3 3 3 3 2 1 1 1 1 1 1 1 0 -1 -1 -1 -1 -2 -3 -4 -4 -5 -5 -6 -7 -7 -7 -6 -7 -7 -7 -7 -8 -8 -9 -9 -10 -11 -12 -11 -10 -10 -10
2 1 2 2 2 1 2 1 1 -0 -1 -2 -2 -2 -2 -3 -3 -5 -6 -5 -6 -5 -6 -7 -7 -8 -8 -7 -8 -8 -9 -10 -10 -11 -11 -12 -12 -12 -13 -13 -13 -12 -11
1 0 0 1 1 0 -0 -1 -1 -2 -3 -3 -3 -3 -4 -5 -5 -5 -6 -5 -5 -8 -7 -8 -8 -9 -9 -9 -10 -10 -10 -11 -12 -12 -13 -13 -13 -13 -13 -13 -13 -13 -12
0 0 0 0 0 -0 -0 -2 -2 -3 -3 -3 -3 -4 -5 -5 -6 -5 -6 -6 -7 -8 -8 -10 -10 -10 -11 -10 -11 -11 -11 -12 -13 -14 -14 -14 -14 -14 -14 -14 -14 -13 -13
0 0 0 0 -0 -1 -2 -2 -2 -2 -3 -3 -3 -4 -6 -6 -6 -6 -7 -8 -9 -9 -10 -10 -12 -11 -10 -10 -11 -12 -13 -14 -14 -14 -15 -15 -16 -16 -15 -15 -15 -14 -13
-0 -0 0 -0 -1 -2 -2 -2 -2 -3 -3 -3 -4 -5 -6 -7 -7 -7 -8 -9 -9 -9 -11 -11 -11 -12 -11 -12 -12 -13 -13 -14 -15 -15 -15 -15 -16 -16 -16 -16 -16 -15 -15
0 0 -0 -0 -1 -1 -1 -2 -3 -3 -3 -4 -6 -7 -8 -8 -9 -8 -9 -9 -10 -11 -11 -11 -12 -12 -13 -14 -14 -14 -14 -15 -15 -16 -16 -16 -16 -16 -16 -16 -16 -16 -15
0 -0 -1 -1 -1 -1 -2 -2 -3 -3 -5 -6 -7 -8 -8 -9 -10 -10 -10 -11 -11 -11 -11 -12 -13 -13 -14 -15 -15 -15 -15 -15 -16 -17 -17 -17 -17 -17 -17 -17 -17 -17 -17
-1 -1 -2 -1 -1 -1 -2 -3 -4 -5 -6 -7 -8 -8 -9 -9 -9 -10 -11 -11 -11 -12 -12 -14 -14 -14 -15 -16 -16 -15 -15 -16 -16 -17 -17 -17 -17 -17 -17 -17 -17 -17 -17
-2 -2 -1 -1 -2 -3 -3 -4 -6 -7 -8 -9 -9 -9 -10 -10 -10 -12 -12 -13 -13 -13 -13 -14 -15 -15 -16 -16 -16 -15 -16 -16 -17 -17 -17 -18 -18 -18 -18 -18 -18 -18 -18
-2 -2 -2 -2 -3 -3 -4 -6 -7 -9 -9 -9 -10 -10 -10 -10 -11 -11 -12 -13 -13 -13 -13 -14 -15 -15 -16 -16 -16 -16 -16 -17 -17 -17 -18 -18 -18 -19 -19 -19 -19 -19 -19
-2 -2 -2 -3 -3 -4 -6 -8 -9 -9 -10 -10 -10 -11 -11 -11 -12 -12 -13 -13 -14 -14 -14 -15 -15 -16 -17 -16 -16 -16 -16 -17 -17 -18 -18 -18 -18 -19 -19 -19 -19 -19 -19
-2 -2 -3 -4 -5 -7 -8 -9 -9 -9 -10 -10 -10 -11 -11 -12 -12 -12 -13 -13 -14 -14 -15 -15 -16 -16 -16 -16 -16 -16 -16 -17 -17 -18 -18 -18 -18 -19 -19 -20 -20 -20 -20
-3 -3 -5 -6 -8 -9 -9 -9 -10 -10 -10 -11 -11 -12 -12 -12 -13 -13 -13 -14 -14 -15 -16 -16 -16 -16 -16 -16 -16 -16 -16 -17 -17 -17 -18 -18 -19 -19 -20 -20 -20 -20 -20
-5 -6 -7 -8 -9 -9 -10 -10 -10 -11 -11 -11 -12 -12 -12 -13 -13 -13 -14 -14 -15 -15 -16 -16 -16 -16 -16 -16 -16 -16 -16 -17 -17 -17 -18 -18 -19 -19 -20 -20 -20 -20 -20
-6 -7 -8 -9 -9 -10 -10 -10 -11 -11 -12 -12 -12 -12 -13 -13 -13 -14 -14 -15 -16 -15 -16 -16 -16 -16 -16 -16 -17 -16 -16 -16 -17 -17 -18 -18 -19 -19 -20 -20 -20 -20 -20
-7 -8 -9 -10 -10 -10 -10 -10 -11 -11 -12 -12 -13 -13 -13 -14 -14 -14 -15 -16 -16 -16 -16 -16 -16 -16 -16 -17 -17 -16 -17 -17 -17 -17 -18 -18 -19 -19 -19 -20 -20 -20 -20
-8 -9 -10 -9 -10 -10 -10 -11 -11 -12 -12 -13 -13 -13 -14 -14 -14 -15 -15 -15 -16 -16 -16 -16 -16 -17 -17 -17 -17 -17 -17 -17 -17 -18 -18 -18 -18 -18 -19 -19 -19 -19 -20
-9 -9 -9 -9 -10 -10 -10 -11 -11 -12 -13 -13 -14 -14 -14 -14 -15 -15 -15 -16 -16 -16 -16 -16 -16 -17 -17 -17 -17 -17 -16 -17 -17 -18 -18 -18 -18 -18 -18 -19 -19 -19 -19
-9 -9 -9 -9 -10 -10 -11 -11 -12 -13 -13 -13 -14 -14 -14 -15 -15 -15 -15 -16 -16 -16 -16 -16 -17 -17 -17 -17 -17 -17 -17 -17 -18 -18 -18 -18 -18 -19 -18 -18 -19 -19 -19
-9 -9 -9 -10 -10 -11 -11 -12 -12 -12 -13 -13 -14 -15 -15 -15 -15 -16 -16 -16 -16 -16 -16 -17 -17 -17 -17 -17 -17 -17 -17 -18 -18 -18 -18 -18 -19 -18 -18 -18 -18 -19 -19

GFSMW_700_temp_009.txt.gz
Temp
7 7 6 5 4 4 4 3 3 3 2 2 2 1 1 1 0 0 -0 -1 -1 -2 -2 -1 -2 -2 -2 -2 -2 -2 -3 -4 -4 -4 -3 -4 -4 -4 -4 -4 -4 -4 -4
7 7 6 5 5 4 3 3 2 2 2 1 1 1 0 -0 -1 -1 -1 -2 -2 -2 -2 -2 -2 -2 -2 -2 -3 -4 -4 -5 -5 -5 -5 -4 -4 -4 -5 -5 -4 -4 -4
6 6 5 5 4 4 3 3 2 1 0 0 -0 -1 -1 -1 -2 -2 -2 -2 -2 -2 -2 -2 -2 -3 -4 -4 -5 -5 -6 -6 -6 -6 -7 -6 -6 -6 -6 -6 -5 -5 -5
5 5 5 4 3 2 2 1 1 1 0 -0 -1 -1 -1 -1 -1 -1 -1 -1 -1 -2 -2 -2 -3 -4 -5 -6 -7 -6 -7 -7 -7 -7 -7 -7 -8 -8 -7 -7 -7 -6 -6
4 5 4 4 3 2 2 1 0 0 0 -0 -0 0 0 -0 -1 -1 -1 -2 -2 -2 -3 -5 -6 -6 -7 -7 -8 -8 -7 -7 -7 -8 -8 -8 -8 -9 -9 -8 -8 -8 -8
4 3 3 3 2 2 1 1 1 0 0 0 -0 -1 -1 -1 -2 -2 -2 -3 -4 -5 -5 -6 -6 -6 -8 -8 -8 -9 -9 -9 -9 -9 -9 -9 -10 -10 -11 -11 -10 -11 -10
3 3 3 2 2 1 1 0 -0 -0 -0 -1 -2 -2 -2 -3 -3 -3 -5 -6 -6 -7 -6 -7 -7 -8 -8 -9 -10 -10 -10 -10 -10 -9 -10 -11 -12 -12 -13 -13 -13 -13 -11
2 3 3 1 1 1 -0 -0 -1 -1 -2 -2 -2 -2 -3 -4 -4 -6 -6 -7 -7 -7 -7 -7 -9 -9 -10 -11 -11 -11 -11 -11 -10 -12 -12 -13 -14 -14 -14 -14 -15 -14 -13
2 2 1 0 -0 -0 -0 -0 -1 -2 -2 -2 -2 -3 -4 -4 -4 -5 -5 -6 -6 -7 -8 -10 -9 -10 -10 -11 -11 -12 -11 -11 -12 -12 -14 -14 -14 -14 -14 -15 -16 -16 -15
1 1 0 0 -1 -1 -1 -1 -2 -2 -2 -2 -3 -4 -4 -5 -5 -6 -7 -7 -8 -9 -10 -11 -10 -10 -11 -12 -13 -13 -12 -13 -13 -14 -15 -15 -14 -15 -15 -16 -16 -16 -16
1 1 -0 -1 -1 -2 -2 -2 -2 -2 -3 -4 -4 -4 -5 -6 -7 -7 -7 -8 -9 -10 -11 -11 -11 -11 -11 -13 -14 -13 -14 -13 -14 -15 -15 -16 -15 -15 -16 -16 -16 -16 -16
1 -0 -1 -1 -2 -2 -2 -2 -2 -3 -4 -4 -5 -6 -7 -7 -7 -7 -8 -9 -9 -11 -11 -12 -12 -13 -13 -13 -13 -14 -14 -14 -15 -15 -16 -16 -16 -16 -16 -16 -16 -16 -17
0 -0 -1 -1 -2 -2 -4 -3 -3 -4 -5 -5 -6 -6 -7 -7 -8 -8 -9 -9 -10 -11 -12 -13 -13 -13 -14 -13 -15 -15 -15 -16 -16 -16 -16 -16 -16 -16 -16 -17 -17 -17 -17
-0 -1 -1 -2 -3 -3 -3 -3 -4 -5 -5 -6 -7 -8 -8 -9 -9 -9 -10 -11 -11 -12 -13 -13 -13 -14 -14 -15 -16 -16 -16 -16 -16 -16 -17 -17 -17 -17 -17 -17 -17 -18 -18
-1 -2 -3 -3 -3 -3 -3 -4 -4 -5 -6 -7 -8 -9 -9 -9 -10 -10 -11 -11 -12 -12 -13 -14 -14 -14 -15 -16 -16 -16 -16 -16 -16 -17 -17 -17 -17 -17 -18 -18 -18 -18 -19
-2 -2 -2 -3 -2 -3 -4 -5 -5 -7 -8 -8 -9 -9 -9 -10 -10 -11 -11 -12 -12 -13 -14 -14 -14 -14 -16 -16 -16 -16 -16 -16 -16 -16 -16 -17 -17 -17 -18 -18 -19 -19 -19
-2 -2 -2 -2 -3 -4 -5 -5 -7 -9 -9 -9 -9 -10 -10 -11 -11 -11 -12 -12 -13 -13 -14 -14 -15 -15 -16 -16 -16 -16 -16 -16 -16 -16 -17 -17 -17 -17 -18 -19 -19 -19 -20
-2 -2 -3 -3 -4 -5 -6 -8 -9 -9 -9 -10 -10 -11 -11 -11 -12 -12 -13 -13 -13 -14 -14 -15 -15 -16 -16 -16 -16 -16 -16 -16 -16 -17 -17 -17 -17 -18 -19 -19 -19 -20 -20
-3 -3 -4 -5 -5 -6 -8 -9 -9 -9 -10 -10 -11 -11 -12 -12 -12 -13 -13 -13 -14 -15 -15 -15 -16 -16 -16 -16 -16 -16 -16 -16 -16 -17 -17 -17 -18 -18 -19 -19 -20 -20 -21
-3 -5 -6 -6 -7 -8 -9 -9 -9 -10 -10 -11 -11 -12 -12 -13 -13 -13 -13 -14 -14 -15 -16 -16 -16 -16 -16 -16 -16 -16 -16 -16 -16 -17 -17 -17 -18 -18 -19 -19 -20 -20 -20
-5 -6 -6 -7 -7 -8 -9 -9 -9 -10 -10 -11 -12 -12 -13 -13 -13 -13 -14 -14 -15 -16 -16 -16 -16 -16 -16 -16 -16 -16 -17 -16 -16 -17 -17 -18 -18 -18 -19 -19 -20 -20 -21
-6 -7 -7 -7 -8 -9 -9 -9 -10 -10 -11 -11 -12 -13 -13 -13 -14 -14 -14 -15 -15 -16 -16 -16 -16 -16 -16 -16 -17 -17 -17 -17 -17 -17 -17 -18 -18 -18 -18 -19 -19 -20 -20
-7 -7 -8 -8 -9 -9 -9 -10 -10 -11 -11 -12 -13 -13 -13 -14 -14 -14 -15 -15 -16 -16 -16 -16 -16 -16 -17 -17 -17 -17 -17 -17 -17 -17 -18 -18 -18 -18 -18 -18 -19 -19 -19
-8 -8 -8 -9 -9 -9 -10 -10 -11 -11 -12 -12 -13 -13 -14 -14 -15 -15 -15 -16 -16 -16 -16 -16 -16 -17 -17 -17 -17 -17 -17 -17 -17 -18 -18 -18 -18 -19 -18 -18 -19 -19 -19
-8 -8 -9 -9 -9 -9 -10 -11 -12 -12 -12 -13 -13 -14 -14 -15 -15 -15 -16 -16 -16 -16 -16 -16 -17 -17 -17 -17 -17 -17 -18 -17 -17 -18 -18 -18 -19 -19 -19 -18 -18 -19 -19
-9 -9 -9 -9 -9 -10 -11 -12 -12 -12 -12 -13 -14 -14 -15 -15 -16 -16 -16 -16 -16 -16 -16 -17 -17 -17 -17 -18 -18 -18 -18 -18 -18 -18 -19 -19 -19 -19 -18 -19 -18 -18 -19

GFSMW_700_temp_012.txt.gz
Temp
6 6 5 5 4 4 4 3 3 2 2 1 1 1 1 -0 -0 -1 -1 -2 -1 -1 -1 -1 -2 -2 -2 -2 -2 -2 -2 -3 -3 -3 -4 -4 -5 -5 -4 -5 -5 -5 -5
6 6 5 5 4 4 3 3 2 2 1 1 0 -0 -0 -1 -1 -1 -2 -1 -1 -1 -1 -2 -2 -2 -2 -2 -2 -4 -4 -5 -5 -5 -6 -5 -5 -5 -6 -6 -6 -6 -6
5 5 5 5 4 4 4 3 2 2 1 1 0 -0 -1 -1 -1 -1 -1 -1 -1 -1 -1 -2 -2 -2 -2 -3 -4 -5 -6 -6 -7 -7 -7 -8 -8 -8 -8 -7 -7 -7 -7
5 5 5 4 4 3 2 2 1 1 0 -0 -1 -1 -1 -0 -0 -1 -1 -1 -1 -1 -2 -2 -3 -4 -5 -6 -7 -7 -7 -7 -8 -8 -8 -8 -9 -8 -8 -8 -8 -8 -8
4 5 4 3 3 3 3 2 1 0 -0 -0 0 0 0 -0 -1 -1 -1 -2 -2 -3 -4 -5 -5 -6 -6 -7 -7 -7 -8 -9 -9 -9 -9 -9 -10 -10 -9 -9 -9 -9 -9
3 3 3 2 2 2 2 0 0 0 -0 -0 -0 -1 -1 -2 -2 -2 -3 -3 -4 -4 -5 -7 -7 -7 -7 -8 -8 -9 -10 -10 -10 -10 -10 -10 -10 -10 -10 -11 -11 -11 -10
2 3 2 3 1 2 1 0 -0 -1 -1 -1 -2 -2 -2 -3 -3 -4 -4 -4 -5 -6 -7 -7 -7 -8 -8 -9 -9 -10 -10 -11 -11 -11 -11 -11 -11 -12 -12 -13 -13 -14 -13
3 3 3 2 2 1 0 -0 -1 -1 -2 -2 -2 -2 -3 -3 -4 -4 -4 -5 -5 -6 -6 -7 -7 -8 -9 -10 -10 -11 -12 -12 -12 -12 -11 -12 -13 -14 -14 -15 -15 -14 -14
3 2 2 2 1 0 -0 -1 -2 -3 -3 -2 -2 -2 -3 -3 -3 -4 -5 -6 -6 -7 -7 -8 -9 -10 -11 -12 -12 -12 -12 -12 -12 -13 -13 -14 -15 -15 -15 -15 -16 -16 -15
3 2 2 1 1 0 -0 -1 -2 -3 -3 -3 -3 -3 -3 -4 -5 -6 -6 -7 -7 -8 -8 -9 -11 -12 -12 -12 -13 -13 -14 -14 -14 -14 -15 -15 -15 -15 -15 -16 -16 -17 -17
2 2 1 1 0 -0 -1 -2 -3 -3 -3 -4 -3 -4 -5 -5 -6 -7 -7 -8 -8 -9 -9 -10 -11 -12 -13 -13 -13 -14 -14 -14 -14 -14 -14 -15 -15 -15 -16 -16 -16 -17 -17
2 1 1 -0 -1 -2 -2 -3 -3 -3 -5 -4 -5 -5 -6 -7 -7 -8 -8 -8 -9 -10 -10 -11 -12 -12 -13 -14 -14 -14 -15 -15 -15 -15 -15 -15 -16 -16 -16 -17 -17 -17 -17
1 1 -0 -1 -2 -2 -3 -3 -3 -5 -5 -5 -6 -6 -7 -7 -8 -8 -9 -9 -10 -10 -11 -12 -13 -13 -14 -14 -14 -15 -15 -15 -15 -15 -15 -16 -16 -16 -17 -17 -17 -17 -17
0 -0 -1 -2 -2 -3 -3 -4 -5 -5 -5 -6 -6 -7 -8 -8 -8 -9 -9 -10 -11 -11 -12 -12 -13 -14 -14 -15 -15 -15 -15 -15 -15 -16 -16 -16 -16 -16 -17 -17 -17 -17 -17
-0 -1 -2 -2 -2 -3 -4 -5 -5 -5 -6 -6 -7 -8 -8 -8 -9 -9 -10 -11 -11 -12 -12 -13 -13 -14 -14 -15 -15 -15 -15 -15 -16 -16 -16 -16 -16 -17 -17 -17 -17 -18 -18
-1 -2 -2 -3 -3 -4 -5 -5 -5 -6 -6 -7 -8 -8 -9 -9 -10 -11 -11 -11 -12 -13 -13 -13 -14 -15 -15 -15 -16 -16 -15 -15 -16 -16 -16 -16 -16 -17 -17 -17 -18 -19 -19
-2 -2 -2 -3 -3 -4 -5 -5 -6 -6 -7 -8 -9 -9 -9 -10 -11 -11 -12 -12 -13 -13 -14 -14 -15 -15 -15 -16 -16 -16 -16 -16 -16 -16 -16 -16 -16 -17 -17 -18 -18 -19 -20
-2 -3 -3 -4 -4 -5 -5 -6 -7 -8 -8 -9 -9 -9 -10 -11 -11 -12 -12 -13 -13 -14 -14 -15 -15 -16 -16 -16 -16 -16 -16 -16 -16 -16 -16 -16 -17 -17 -18 -18 -18 -19 -20
-3 -2 -4 -4 -5 -6 -6 -7 -8 -9 -9 -9 -9 -10 -11 -11 -12 -12 -13 -13 -14 -14 -15 -15 -16 -16 -16 -16 -16 -16 -16 -16 -16 -16 -16 -17 -17 -17 -18 -18 -19 -19 -20
-3 -4 -5 -6 -6 -6 -7 -8 -9 -9 -9 -9 -10 -11 -11 -12 -12 -13 -13 -14 -14 -15 -15 -16 -16 -16 -16 -16 -16 -16 -16 -16 -17 -17 -17 -17 -17 -18 -18 -18 -19 -19 -20
-4 -5 -6 -7 -7 -7 -8 -9 -9 -9 -9 -10 -11 -11 -12 -12 -13 -13 -14 -14 -15 -15 -15 -16 -16 -16 -16 -16 -16 -17 -17 -17 -17 -17 -17 -17 -18 -18 -18 -18 -19 -19 -20
-5 -6 -7 -7 -8 -8 -9 -9 -9 -9 -10 -10 -11 -12 -12 -13 -13 -14 -15 -15 -15 -15 -16 -16 -16 -16 -16 -16 -17 -17 -17 -17 -17 -17 -17 -17 -18 -18 -19 -18 -19 -19 -20
-6 -7 -7 -8 -8 -9 -9 -9 -9 -10 -10 -11 -12 -12 -12 -13 -14 -15 -15 -15 -16 -16 -16 -16 -16 -17 -17 -17 -17 -17 -17 -18 -18 -18 -17 -18 -18 -19 -19 -18 -18 -19 -19
-7 -7 -7 -8 -9 -9 -9 -9 -10 -10 -11 -12 -12 -13 -13 -14 -14 -15 -16 -16 -16 -16 -16 -16 -16 -17 -17 -17 -17 -17 -18 -18 -18 -18 -18 -18 -18 -19 -19 -19 -18 -19 -19
-8 -8 -8 -9 -9 -9 -9 -10 -10 -11 -12 -13 -13 -13 -13 -14 -15 -15 -16 -16 -16 -16 -16 -16 -16 -17 -17 -17 -17 -17 -18 -18 -18 -18 -18 -18 -19 -19 -19 -19 -19 -18 -19
-8 -9 -9 -9 -9 -10 -10 -10 -11 -12 -13 -13 -13 -13 -14 -14 -14 -15 -16 -16 -16 -16 -16 -16 -16 -17 -17 -17 -17 -18 -18 -18 -19 -18 -18 -19 -19 -19 -19 -19 -19 -19 -19

GFSMW_700_temp_015.txt.gz
Temp
6 5 5 5 4 4 4 3 3 2 2 1 1 1 1 1 1 0 -0 -0 -1 -1 -2 -2 -2 -2 -2 -2 -2 -2 -2 -3 -3 -3 -4 -4 -4 -4 -5 -5 -5 -5 -5
6 5 5 5 4 4 3 3 3 2 2 2 1 1 0 -0 -0 -1 -1 -1 -1 -1 -1 -1 -2 -2 -2 -3 -3 -3 -3 -3 -4 -4 -5 -5 -6 -6 -6 -6 -7 -7 -7
5 5 5 5 4 4 3 3 2 2 1 0 -0 -0 -0 -0 -0 -0 -0 -0 -1 -1 -1 -2 -3 -3 -3 -3 -3 -4 -5 -5 -6 -6 -7 -8 -8 -8 -8 -8 -8 -8 -8
5 4 4 4 4 3 3 2 2 2 1 0 -0 -1 -1 -1 -1 -1 -1 -2 -2 -2 -2 -3 -3 -3 -4 -5 -5 -6 -7 -8 -8 -8 -9 -10 -10 -10 -10 -9 -9 -9 -9
4 4 3 3 3 2 2 2 2 1 0 0 -0 -1 -1 -1 -1 -2 -2 -2 -2 -3 -4 -4 -5 -5 -6 -7 -7 -8 -9 -9 -9 -10 -10 -11 -11 -11 -11 -10 -10 -10 -10
4 3 3 3 3 2 2 2 1 0 -0 -1 -1 -1 -2 -2 -2 -2 -3 -3 -3 -4 -5 -5 -6 -6 -7 -7 -8 -9 -11 -10 -10 -11 -11 -11 -12 -11 -12 -11 -11 -10 -10
3 3 3 3 2 2 2 1 1 -0 -1 -2 -2 -3 -3 -3 -3 -3 -3 -3 -4 -5 -5 -6 -7 -7 -8 -8 -9 -10 -11 -11 -11 -11 -12 -12 -12 -12 -13 -13 -13 -13 -12
3 3 3 2 2 2 1 1 0 -1 -1 -2 -3 -3 -3 -3 -3 -3 -4 -4 -5 -6 -7 -7 -7 -8 -8 -9 -10 -11 -11 -12 -12 -12 -13 -13 -13 -14 -14 -14 -14 -14 -14
3 3 2 2 2 2 1 -0 -1 -1 -2 -2 -3 -3 -2 -3 -4 -4 -5 -6 -6 -7 -7 -7 -8 -9 -9 -10 -12 -12 -13 -13 -13 -13 -14 -14 -14 -14 -14 -15 -15 -16 -15
3 2 2 2 2 1 0 -0 -1 -2 -2 -2 -3 -3 -4 -4 -5 -5 -6 -6 -7 -7 -8 -8 -9 -10 -11 -12 -13 -13 -13 -14 -14 -14 -14 -14 -14 -15 -15 -15 -16 -16 -16
2 2 2 2 1 0 -1 -1 -2 -2 -2 -3 -4 -4 -5 -5 -5 -6 -7 -7 -8 -8 -9 -9 -10 -11 -12 -12 -13 -14 -14 -14 -14 -15 -15 -15 -15 -15 -16 -16 -16 -16 -17
2 2 2 1 0 -1 -1 -2 -2 -2 -3 -3 -5 -5 -5 -6 -6 -7 -8 -8 -9 -9 -10 -10 -11 -12 -12 -13 -14 -14 -14 -15 -15 -15 -15 -15 -15 -15 -16 -16 -16 -16 -17
2 2 1 0 -1 -2 -2 -2 -2 -3 -4 -5 -5 -6 -6 -7 -7 -8 -8 -9 -9 -10 -10 -11 -12 -12 -14 -14 -15 -15 -15 -15 -15 -15 -15 -15 -15 -16 -16 -16 -16 -17 -17
2 1 0 -1 -2 -2 -2 -3 -4 -4 -5 -5 -6 -6 -7 -8 -8 -8 -9 -9 -10 -11 -11 -12 -13 -13 -14 -15 -15 -15 -15 -15 -16 -15 -16 -16 -16 -16 -16 -16 -16 -17 -17
1 0 -1 -2 -2 -2 -3 -3 -4 -4 -5 -6 -7 -7 -8 -8 -8 -9 -10 -10 -11 -12 -12 -13 -13 -14 -14 -15 -15 -15 -16 -16 -16 -16 -16 -16 -16 -16 -16 -16 -17 -17 -17
0 -1 -1 -2 -2 -2 -3 -4 -4 -5 -6 -7 -7 -8 -8 -9 -9 -10 -10 -11 -12 -12 -13 -13 -14 -14 -15 -15 -16 -16 -16 -16 -16 -16 -16 -16 -16 -16 -16 -17 -17 -17 -18
-1 -1 -2 -2 -3 -4 -4 -5 -5 -6 -7 -7 -8 -8 -9 -9 -10 -10 -11 -12 -12 -13 -13 -14 -14 -15 -15 -16 -16 -16 -16 -16 -16 -16 -16 -16 -16 -16 -17 -17 -17 -18 -19
-1 -2 -2 -3 -3 -4 -5 -6 -6 -7 -7 -8 -8 -9 -9 -9 -10 -11 -12 -12 -13 -13 -14 -14 -15 -15 -16 -16 -16 -16 -16 -16 -16 -16 -16 -16 -16 -17 -17 -17 -17 -18 -19
-2 -2 -3 -3 -4 -5 -6 -6 -7 -7 -8 -8 -9 -9 -9 -10 -11 -12 -12 -12 -13 -14 -14 -14 -15 -15 -16 -16 -16 -16 -16 -16 -17 -17 -17 -17 -17 -17 -17 -17 -18 -18 -19
-2 -3 -3 -4 -5 -6 -6 -7 -7 -8 -8 -8 -9 -9 -10 -11 -12 -12 -12 -13 -14 -14 -15 -15 -15 -16 -16 -16 -16 -16 -16 -17 -17 -17 -17 -17 -17 -17 -18 -18 -18 -18 -19
-3 -4 -3 -5 -6 -7 -7 -7 -8 -8 -8 -9 -9 -10 -11 -12 -12 -12 -13 -14 -15 -15 -15 -16 -16 -16 -16 -16 -17 -17 -17 -17 -17 -17 -18 -18 -17 -18 -18 -18 -18 -18 -19
-4 -4 -4 -5 -7 -8 -7 -8 -8 -8 -9 -9 -10 -11 -12 -12 -13 -13 -13 -14 -15 -15 -15 -16 -16 -16 -16 -16 -17 -17 -17 -17 -17 -18 -18 -18 -18 -18 -18 -18 -19 -18 -19
-4 -4 -5 -7 -8 -8 -8 -8 -8 -9 -9 -10 -11 -12 -12 -13 -13 -13 -14 -15 -15 -16 -16 -16 -16 -16 -16 -16 -16 -17 -17 -18 -18 -18 -18 -18 -18 -18 -18 -19 -18 -18 -19
-4 -5 -8 -8 -9 -9 -9 -8 -9 -9 -10 -10 -11 -12 -13 -13 -13 -14 -14 -15 -15 -15 -16 -16 -16 -16 -16 -16 -16 -17 -17 -18 -18 -18 -18 -18 -18 -19 -19 -19 -19 -19 -19
-5 -7 -9 -10 -10 -9 -9 -9 -9 -10 -10 -11 -12 -13 -13 -13 -13 -14 -14 -14 -15 -15 -16 -16 -16 -16 -16 -16 -17 -17 -17 -18 -18 -18 -19 -19 -19 -19 -19 -19 -19 -19 -19
-7 -10 -10 -11 -10 -9 -9 -9 -10 -11 -12 -12 -12 -13 -13 -13 -14 -14 -14 -15 -15 -16 -16 -16 -16 -16 -16 -16 -17 -17 -18 -18 -18 -18 -18 -18 -19 -19 -19 -19 -19 -19 -19

GFSMW_700_temp_021.txt.gz
Temp
5 5 5 5 5 4 4 4 3 3 3 2 2 2 1 1 1 0 0 0 0 -0 -1 -1 -1 -1 -1 -1 -2 -2 -2 -2 -2 -3 -2 -2 -2 -4 -6 -8 -8 -7 -6
6 6 5 5 4 4 4 4 3 3 3 3 2 1 0 0 0 0 -0 -1 -1 -1 -1 -1 -1 -2 -2 -2 -2 -3 -3 -3 -3 -4 -4 -4 -4 -5 -8 -7 -8 -8 -9
6 6 5 5 5 4 4 4 3 3 3 3 2 1 1 0 -0 -0 -1 -0 -0 -1 -1 -1 -1 -2 -2 -3 -3 -3 -4 -4 -5 -5 -6 -6 -7 -7 -7 -8 -8 -9 -10
4 6 6 5 5 5 4 3 3 3 2 1 1 1 -1 -2 -1 -1 -0 -1 -1 -1 -1 -2 -2 -3 -3 -3 -4 -5 -5 -5 -6 -6 -7 -8 -10 -11 -10 -11 -12 -12 -12
6 5 5 4 4 4 3 3 3 2 2 1 1 -0 -0 -1 -1 -1 -1 -1 -2 -2 -2 -3 -3 -3 -4 -4 -5 -5 -5 -6 -7 -8 -8 -10 -11 -12 -13 -13 -13 -13 -13
6 5 5 4 4 4 3 3 2 2 2 1 1 1 -0 -1 -1 -1 -1 -2 -2 -3 -3 -3 -4 -4 -5 -5 -6 -6 -7 -8 -9 -10 -10 -13 -13 -14 -14 -14 -14 -14 -14
5 5 5 4 4 4 3 3 2 2 1 1 1 0 -0 -0 -1 -2 -2 -2 -2 -3 -3 -4 -5 -5 -6 -6 -7 -7 -8 -11 -12 -12 -13 -14 -14 -14 -15 -15 -15 -15 -14
5 5 4 4 3 3 3 2 2 2 1 1 1 0 -1 -1 -2 -2 -2 -3 -3 -3 -4 -5 -5 -6 -6 -7 -7 -9 -11 -12 -12 -13 -14 -14 -15 -15 -15 -15 -15 -15 -15
4 4 4 4 3 3 2 2 2 1 1 1 -0 -1 -2 -2 -2 -3 -3 -4 -4 -5 -5 -5 -6 -6 -7 -8 -9 -11 -11 -12 -12 -13 -13 -14 -15 -15 -15 -15 -16 -16 -15
2 4 3 3 3 3 2 2 1 1 1 0 -1 -2 -2 -2 -3 -3 -4 -4 -5 -5 -5 -6 -6 -7 -8 -9 -11 -11 -11 -12 -12 -13 -14 -15 -15 -15 -16 -16 -16 -16 -16
1 2 3 3 3 2 2 1 1 1 -0 -0 -1 -2 -2 -3 -3 -4 -4 -4 -5 -5 -6 -6 -7 -8 -9 -10 -11 -12 -12 -12 -13 -13 -15 -15 -15 -16 -16 -16 -17 -17 -17
2 1 3 3 2 2 2 1 1 0 -0 -1 -2 -2 -3 -4 -4 -4 -4 -5 -6 -6 -7 -7 -8 -9 -11 -11 -12 -12 -13 -13 -14 -15 -15 -15 -16 -16 -16 -17 -17 -18 -18
2 1 3 3 2 2 2 1 1 -0 -0 -1 -2 -3 -3 -4 -5 -5 -5 -6 -7 -7 -8 -8 -9 -10 -10 -12 -13 -14 -14 -15 -15 -15 -15 -15 -16 -16 -16 -16 -16 -16 -16
2 1 2 3 2 2 1 1 0 -1 -1 -2 -3 -4 -5 -5 -5 -6 -6 -7 -7 -8 -8 -9 -10 -12 -12 -14 -13 -14 -14 -15 -15 -15 -16 -16 -16 -16 -16 -16 -16 -16 -16
2 2 3 2 2 2 1 1 -0 -1 -2 -2 -4 -5 -5 -6 -6 -6 -7 -7 -8 -8 -9 -10 -11 -12 -13 -14 -14 -14 -15 -15 -16 -16 -16 -16 -16 -16 -16 -16 -16 -16 -16
3 3 2 2 1 1 1 -0 -1 -2 -2 -3 -4 -6 -6 -6 -6 -7 -8 -8 -8 -9 -10 -11 -11 -12 -13 -13 -14 -14 -15 -15 -15 -16 -16 -16 -16 -16 -16 -16 -16 -16 -17
2 2 2 1 1 0 0 -1 -2 -2 -3 -4 -6 -8 -8 -7 -7 -8 -8 -8 -9 -10 -11 -12 -12 -13 -14 -14 -14 -15 -15 -15 -16 -16 -16 -16 -17 -17 -17 -17 -17 -17 -17
2 1 1 1 0 -0 -1 -2 -2 -3 -3 -4 -6 -9 -8 -8 -8 -8 -9 -9 -10 -11 -12 -12 -12 -13 -13 -14 -15 -15 -15 -16 -16 -16 -16 -16 -17 -17 -17 -17 -17 -17 -18
1 0 0 -0 -1 -1 -2 -2 -3 -3 -3 -5 -9 -9 -9 -9 -9 -9 -9 -10 -11 -11 -12 -13 -13 -14 -14 -14 -15 -15 -15 -16 -16 -16 -16 -17 -17 -17 -18 -17 -17 -18 -18
0 -1 -1 -1 -2 -2 -3 -3 -3 -4 -7 -7 -10 -11 -11 -10 -9 -9 -10 -11 -11 -12 -13 -13 -14 -15 -15 -15 -15 -16 -16 -16 -16 -16 -17 -17 -17 -18 -18 -18 -18 -18 -18
-1 -1 -2 -2 -2 -3 -3 -3 -3 -6 -8 -10 -11 -12 -10 -9 -9 -10 -11 -11 -12 -12 -13 -13 -14 -14 -15 -15 -15 -16 -16 -16 -16 -16 -17 -17 -18 -18 -18 -18 -18 -18 -18
-2 -2 -2 -3 -2 -3 -3 -4 -6 -7 -10 -10 -12 -11 -10 -9 -10 -11 -11 -12 -13 -13 -13 -13 -14 -15 -15 -15 -15 -16 -16 -16 -16 -17 -17 -17 -18 -18 -18 -18 -18 -18 -19
-2 -2 -2 -3 -3 -3 -5 -7 -8 -10 -11 -12 -11 -10 -10 -10 -11 -12 -12 -13 -13 -13 -14 -14 -14 -15 -16 -15 -15 -16 -16 -16 -16 -17 -17 -17 -18 -18 -18 -18 -18 -18 -18
-2 -2 -3 -3 -4 -5 -7 -8 -10 -10 -12 -11 -10 -10 -10 -11 -12 -12 -12 -13 -13 -14 -14 -14 -15 -16 -17 -16 -16 -15 -16 -16 -17 -17 -17 -17 -18 -18 -18 -18 -18 -18 -19
-3 -4 -4 -4 -6 -7 -8 -9 -10 -12 -12 -11 -11 -11 -11 -12 -12 -13 -13 -13 -14 -14 -14 -14 -15 -16 -16 -16 -16 -16 -16 -16 -16 -17 -17 -17 -17 -18 -18 -18 -18 -18 -19
-4 -4 -5 -5 -8 -9 -9 -9 -10 -11 -11 -11 -11 -11 -12 -12 -13 -13 -13 -13 -14 -14 -14 -15 -15 -16 -16 -16 -16 -16 -16 -17 -17 -17 -17 -17 -17 -17 -18 -18 -18 -18 -19

GFSMW_700_temp_024.txt.gz
Temp
4 6 6 5 3 3 5 5 4 3 3 3 2 2 1 1 1 1 1 1 1 1 0 -0 -0 -0 -0 -0 -0 -0 -1 -1 -1 -1 -2 -2 -2 -2 -4 -4 -5 -6 -7
5 6 6 5 5 4 5 5 4 4 3 3 3 2 1 2 1 1 1 1 0 0 -0 -1 -1 -1 -0 -1 -1 -1 -1 -1 -2 -3 -3 -2 -2 -3 -3 -5 -6 -7 -8
5 6 6 5 5 5 5 5 4 3 3 3 2 2 2 0 1 1 1 0 -0 -0 -0 -1 -1 -1 -1 -1 -2 -2 -2 -2 -3 -3 -4 -3 -3 -4 -5 -6 -7 -8 -8
5 5 6 6 6 5 5 4 4 4 3 2 2 1 1 1 1 0 0 -1 -0 -1 -1 -1 -1 -1 -1 -2 -2 -3 -3 -4 -4 -4 -5 -5 -6 -7 -7 -9 -10 -11 -12
6 5 5 6 6 5 4 5 4 4 3 2 2 2 2 0 0 -0 -1 -1 -1 -1 -2 -2 -2 -2 -3 -3 -3 -3 -4 -4 -5 -6 -7 -7 -8 -10 -10 -10 -12 -12 -12
5 4 3 5 6 5 4 4 4 3 3 2 2 2 1 1 1 0 -1 -1 -2 -2 -2 -2 -3 -3 -3 -4 -4 -4 -5 -6 -7 -7 -9 -10 -11 -12 -13 -13 -13 -13 -12
4 3 4 6 5 4 4 4 3 3 3 2 2 2 1 1 -0 -1 -1 -2 -3 -2 -3 -3 -3 -3 -4 -4 -5 -6 -7 -8 -9 -11 -11 -11 -12 -13 -13 -14 -14 -14 -13
4 3 4 5 5 4 4 3 3 3 2 2 2 1 0 0 -1 -1 -2 -2 -3 -2 -3 -4 -3 -4 -4 -5 -5 -6 -8 -9 -11 -11 -12 -12 -13 -13 -14 -14 -14 -14 -14
4 3 3 4 4 4 4 3 3 2 2 2 2 1 0 -0 -1 -2 -2 -1 -2 -3 -4 -4 -4 -4 -5 -6 -6 -8 -9 -11 -11 -11 -12 -12 -13 -13 -14 -14 -15 -15 -15
2 2 2 3 4 4 3 3 3 2 2 2 1 0 -0 -1 -2 -2 -3 -2 -3 -4 -4 -4 -4 -5 -5 -7 -7 -8 -10 -11 -12 -12 -13 -13 -13 -14 -14 -14 -15 -15 -16
3 2 2 2 3 3 3 3 2 2 2 1 1 0 -1 -1 -2 -3 -3 -3 -4 -4 -4 -5 -5 -6 -7 -7 -9 -10 -11 -11 -12 -13 -13 -13 -14 -14 -14 -14 -15 -16 -16
3 2 2 2 3 3 3 3 2 2 2 1 0 -1 -1 -2 -2 -3 -4 -4 -5 -5 -5 -6 -6 -7 -8 -9 -10 -10 -11 -12 -12 -13 -14 -14 -14 -14 -15 -15 -15 -16 -16
3 2 2 2 3 2 3 3 2 2 1 1 -1 -1 -2 -2 -3 -4 -5 -5 -6 -6 -7 -7 -8 -8 -9 -10 -10 -11 -13 -13 -14 -14 -14 -15 -15 -15 -15 -15 -15 -16 -16
4 3 2 2 2 2 2 2 1 1 1 -0 -2 -2 -2 -2 -5 -6 -6 -7 -7 -7 -7 -8 -8 -9 -10 -11 -11 -13 -14 -14 -14 -14 -15 -15 -16 -15 -15 -15 -16 -16 -16
4 3 3 2 1 1 1 1 1 1 0 -2 -2 -2 -3 -3 -5 -7 -8 -8 -9 -8 -8 -8 -9 -10 -11 -11 -12 -13 -14 -14 -14 -14 -15 -16 -16 -16 -15 -16 -16 -16 -17
4 3 3 2 1 0 -0 0 -0 -0 -1 -3 -3 -3 -4 -8 -8 -8 -9 -9 -10 -9 -9 -10 -10 -11 -12 -12 -13 -14 -14 -14 -15 -15 -15 -16 -16 -16 -15 -16 -16 -16 -17
3 2 2 1 1 0 -1 -1 -1 -2 -3 -3 -3 -4 -7 -8 -9 -10 -10 -11 -10 -10 -10 -11 -11 -12 -12 -12 -13 -14 -15 -15 -15 -15 -15 -16 -16 -16 -17 -17 -17 -18 -18
2 2 2 1 0 -0 -2 -2 -3 -2 -4 -4 -5 -5 -6 -8 -10 -12 -11 -11 -11 -10 -11 -11 -12 -12 -13 -13 -14 -14 -15 -15 -15 -15 -16 -16 -16 -16 -17 -17 -17 -18 -18
1 1 1 -0 -1 -1 -2 -2 -3 -5 -5 -5 -5 -7 -8 -10 -12 -11 -12 -11 -10 -11 -11 -12 -12 -13 -13 -13 -14 -15 -15 -15 -15 -15 -16 -16 -16 -17 -17 -17 -17 -18 -18
0 -1 -1 -2 -2 -3 -3 -2 -3 -4 -5 -5 -7 -8 -10 -11 -11 -12 -11 -10 -10 -11 -12 -12 -13 -14 -13 -14 -14 -15 -15 -15 -15 -16 -16 -16 -16 -17 -17 -17 -18 -18 -18
-1 -1 -2 -2 -2 -2 -2 -2 -3 -3 -3 -6 -8 -9 -9 -9 -12 -12 -11 -10 -11 -12 -12 -12 -13 -14 -14 -14 -15 -15 -15 -15 -16 -16 -16 -16 -17 -17 -17 -18 -18 -18 -18
-2 -2 -1 -2 -2 -2 -2 -3 -3 -4 -6 -8 -8 -9 -9 -11 -11 -11 -10 -11 -12 -12 -13 -13 -13 -14 -14 -14 -15 -15 -16 -16 -16 -16 -16 -17 -17 -17 -17 -18 -18 -18 -18
-1 -1 -2 -2 -3 -3 -4 -4 -4 -5 -8 -9 -9 -10 -11 -11 -11 -11 -11 -12 -12 -12 -13 -13 -14 -14 -15 -15 -15 -15 -16 -16 -16 -16 -16 -17 -17 -17 -17 -17 -17 -18 -18
-2 -3 -4 -4 -4 -4 -5 -6 -8 -8 -9 -10 -11 -11 -11 -11 -11 -11 -12 -12 -12 -13 -13 -14 -14 -14 -15 -16 -15 -16 -16 -16 -16 -16 -16 -17 -17 -17 -17 -17 -17 -17 -18
-4 -5 -5 -5 -5 -6 -8 -9 -8 -9 -10 -11 -11 -11 -11 -11 -11 -11 -12 -12 -13 -13 -14 -14 -14 -15 -15 -16 -16 -16 -16 -16 -16 -16 -16 -17 -17 -17 -17 -17 -17 -17 -18
-5 -6 -7 -6 -8 -8 -8 -8 -9 -10 -11 -11 -11 -11 -11 -12 -12 -12 -12 -13 -13 -13 -14 -14 -14 -15 -15 -16 -16 -16 -16 -16 -16 -16 -16 -17 -17 -17 -17 -17 -17 -17 -17

GFSMW_700_temp_030.txt.gz
Temp
5 5 6 5 5 5 5 5 4 4 4 4 4 4 3 3 3 3 3 3 2 2 1 1 1 1 0 -0 -0 0 0 -0 -0 -0 -1 -1 -1 -1 -2 -2 -2 -3 -4
6 6 6 6 6 6 5 5 4 4 4 4 4 4 3 3 3 3 2 2 1 1 1 0 0 -1 -1 -1 -1 -1 -1 -1 -1 -1 -1 -1 -1 -1 -2 -2 -3 -3 -4
7 6 6 6 6 6 5 4 4 4 3 3 3 4 4 3 3 2 2 1 1 0 -0 -1 -1 -1 -2 -2 -2 -1 -1 -1 -2 -2 -2 -2 -2 -2 -2 -2 -3 -4 -5
7 6 6 6 6 6 5 4 4 4 4 4 3 4 3 3 2 2 1 1 0 -0 -1 -2 -2 -2 -2 -1 -1 -2 -2 -2 -2 -3 -3 -3 -3 -3 -3 -4 -5 -6 -8
7 7 7 6 6 5 5 5 4 4 4 4 4 4 3 3 2 1 1 0 -0 -1 -1 -2 -2 -3 -2 -2 -2 -3 -3 -3 -4 -4 -4 -4 -4 -5 -5 -5 -7 -8 -10
6 6 6 6 5 4 4 4 5 5 4 4 4 3 3 2 2 1 0 -0 -1 -2 -2 -3 -3 -3 -3 -3 -3 -3 -3 -4 -4 -4 -4 -5 -5 -6 -7 -8 -8 -9 -11
6 6 6 5 5 5 5 4 5 5 4 3 3 3 2 2 1 -0 -1 -2 -2 -2 -2 -2 -2 -3 -4 -4 -4 -4 -4 -5 -5 -5 -6 -6 -7 -8 -9 -9 -9 -10 -11
7 6 6 5 5 5 4 4 4 4 3 3 2 2 1 0 -1 -1 -2 -2 -3 -3 -3 -2 -3 -4 -4 -5 -4 -5 -5 -5 -6 -7 -7 -8 -9 -10 -11 -12 -12 -12 -12
6 6 6 5 5 4 4 4 4 4 3 2 1 1 0 -1 -2 -2 -3 -3 -2 -2 -2 -3 -3 -5 -5 -5 -5 -6 -6 -6 -7 -8 -8 -9 -10 -11 -12 -13 -13 -13 -13
6 6 5 5 5 4 4 3 3 3 3 2 1 1 -0 -1 -2 -2 -2 -2 -2 -2 -3 -3 -3 -4 -7 -6 -7 -7 -7 -8 -8 -8 -9 -10 -11 -12 -13 -13 -14 -14 -14
6 5 5 5 5 4 4 3 3 2 2 2 1 1 -0 -1 -2 -2 -2 -1 -2 -3 -3 -4 -4 -6 -8 -8 -9 -9 -9 -9 -9 -10 -11 -12 -13 -13 -13 -14 -14 -15 -15
5 5 5 5 4 4 4 3 3 2 2 1 1 1 -0 -1 -1 -2 -2 -2 -3 -3 -3 -4 -6 -8 -9 -9 -10 -10 -11 -10 -10 -11 -12 -13 -13 -13 -14 -14 -15 -15 -16
6 6 5 4 4 4 3 3 3 2 2 1 1 0 -1 -2 -2 -2 -3 -4 -4 -4 -4 -5 -7 -9 -9 -10 -11 -12 -12 -11 -11 -12 -13 -13 -14 -14 -15 -15 -15 -15 -16
5 5 4 4 3 3 3 3 2 2 1 0 0 -0 -2 -3 -3 -4 -4 -4 -4 -5 -5 -7 -9 -9 -9 -11 -11 -12 -12 -12 -13 -13 -13 -14 -14 -15 -15 -15 -15 -15 -16
5 4 4 3 3 2 2 2 1 1 0 -0 -1 -2 -3 -4 -4 -4 -4 -5 -5 -5 -6 -9 -9 -9 -10 -11 -12 -12 -12 -13 -13 -13 -14 -14 -15 -15 -15 -15 -15 -16 -16
4 4 3 3 3 2 1 1 1 -0 -1 -1 -2 -3 -3 -3 -4 -4 -4 -5 -5 -5 -9 -9 -9 -9 -10 -11 -11 -12 -13 -13 -13 -14 -15 -15 -15 -15 -15 -16 -16 -16 -16
4 4 4 3 3 2 1 1 -0 -0 -1 -2 -2 -3 -3 -3 -3 -4 -4 -5 -7 -9 -9 -9 -9 -10 -10 -11 -12 -12 -13 -13 -14 -14 -15 -15 -15 -15 -16 -16 -16 -16 -17
3 3 2 2 2 1 1 1 0 -1 -1 -2 -3 -3 -4 -4 -4 -4 -5 -8 -9 -8 -9 -10 -10 -10 -11 -12 -12 -13 -13 -14 -14 -14 -15 -15 -15 -15 -16 -16 -16 -16 -17
2 2 1 1 1 0 -0 -0 -1 -1 -2 -2 -3 -3 -3 -4 -5 -7 -9 -8 -8 -9 -10 -10 -11 -11 -11 -12 -12 -13 -13 -14 -14 -15 -15 -15 -15 -15 -16 -16 -16 -16 -17
1 0 0 -0 -1 -1 -1 -2 -2 -2 -2 -3 -3 -3 -3 -5 -8 -8 -7 -8 -9 -10 -11 -11 -10 -10 -11 -12 -13 -13 -14 -14 -15 -15 -15 -15 -16 -16 -16 -16 -16 -16 -17
1 0 -0 -1 -2 -3 -3 -3 -3 -3 -3 -3 -3 -5 -5 -7 -7 -7 -8 -10 -11 -11 -11 -10 -10 -11 -12 -13 -13 -14 -14 -15 -15 -15 -16 -16 -16 -16 -16 -16 -16 -16 -17
-1 -1 -2 -2 -3 -4 -4 -4 -4 -5 -5 -5 -5 -6 -6 -7 -8 -9 -10 -11 -11 -10 -11 -11 -11 -12 -12 -12 -13 -14 -14 -15 -15 -16 -16 -16 -16 -16 -16 -16 -16 -16 -17
-2 -2 -3 -4 -4 -4 -5 -5 -5 -6 -6 -6 -6 -7 -8 -9 -9 -10 -10 -10 -11 -11 -11 -12 -12 -12 -13 -13 -13 -14 -15 -15 -15 -16 -16 -16 -16 -16 -16 -17 -17 -17 -17
-2 -4 -4 -4 -4 -5 -6 -6 -6 -6 -7 -7 -8 -9 -9 -9 -10 -10 -10 -11 -11 -11 -12 -12 -12 -13 -13 -14 -14 -14 -15 -15 -16 -16 -16 -16 -17 -17 -17 -17 -17 -17 -17
-4 -4 -4 -4 -5 -6 -6 -6 -7 -7 -8 -9 -9 -10 -10 -10 -10 -11 -11 -11 -12 -12 -13 -13 -13 -13 -13 -14 -14 -15 -15 -16 -16 -16 -16 -16 -17 -17 -17 -17 -17 -17 -17
-5 -5 -6 -6 -7 -7 -7 -7 -8 -9 -9 -9 -10 -10 -10 -11 -11 -11 -11 -12 -12 -13 -14 -14 -14 -14 -14 -15 -15 -15 -15 -16 -16 -16 -16 -16 -17 -17 -17 -17 -17 -17 -17

GFSMW_700_temp_033.txt.gz
Temp
6 6 5 5 5 5 5 5 4 4 4 4 3 3 3 3 3 2 3 3 2 2 2 1 1 1 1 -0 -0 0 0 -0 -0 -0 -1 -1 -1 -1 -1 -2 -2 -2 -2
6 6 6 6 6 5 5 5 5 4 4 4 3 3 3 3 3 3 3 2 2 1 1 1 0 -0 -1 -0 -0 -0 -1 -1 -1 -1 -1 -2 -2 -2 -2 -2 -2 -3 -3
7 6 6 6 6 6 5 5 4 4 4 3 3 3 3 3 3 3 2 2 1 1 0 -0 -0 -1 -1 -1 -1 -2 -2 -2 -2 -2 -2 -2 -2 -2 -2 -3 -3 -3 -4
6 6 6 6 6 6 5 4 4 3 3 3 3 3 3 3 3 2 2 1 1 0 -0 -1 -1 -1 -2 -2 -2 -2 -2 -2 -3 -3 -3 -3 -3 -3 -3 -4 -5 -5 -6
7 6 6 6 6 5 4 4 3 3 3 3 3 2 3 3 2 2 2 1 1 0 -1 -1 -2 -2 -2 -3 -3 -3 -3 -4 -4 -4 -4 -4 -5 -5 -5 -5 -6 -7 -8
6 7 6 6 6 5 4 4 4 3 3 3 3 3 2 3 2 2 1 1 -0 -1 -1 -2 -2 -2 -2 -3 -4 -4 -4 -5 -5 -5 -5 -5 -6 -6 -7 -7 -7 -8 -9
6 7 7 6 6 5 5 4 4 3 3 4 4 3 3 2 2 1 1 0 -0 -1 -2 -2 -3 -3 -3 -4 -4 -4 -5 -5 -6 -6 -6 -7 -7 -7 -8 -8 -9 -9 -9
7 6 6 6 5 5 4 4 4 3 3 3 4 3 2 2 1 1 -0 -1 -2 -2 -3 -2 -2 -3 -4 -3 -4 -5 -6 -7 -7 -7 -8 -8 -8 -9 -9 -10 -10 -11 -11
7 6 6 6 5 4 4 3 3 3 3 3 3 3 2 1 1 -0 -1 -2 -2 -1 -2 -3 -3 -3 -4 -4 -5 -6 -7 -8 -8 -8 -9 -9 -9 -9 -10 -12 -12 -13 -13
7 7 6 5 4 4 3 3 3 3 3 3 3 2 1 1 -0 -0 -1 -2 -2 -2 -3 -3 -4 -4 -4 -4 -5 -7 -7 -8 -8 -9 -10 -10 -10 -10 -11 -12 -14 -14 -14
6 6 5 4 4 4 4 4 4 4 3 3 2 2 1 0 -1 -1 -2 -2 -2 -3 -3 -4 -4 -4 -4 -5 -6 -8 -7 -8 -10 -10 -10 -10 -11 -11 -13 -14 -14 -14 -14
6 6 5 5 5 4 4 4 3 3 2 2 1 1 0 -0 -1 -2 -2 -3 -3 -3 -4 -4 -5 -5 -5 -6 -8 -8 -9 -10 -10 -10 -11 -11 -12 -13 -13 -14 -14 -15 -15
6 6 6 5 4 4 4 3 3 2 2 1 1 0 -0 -2 -2 -3 -3 -4 -4 -5 -5 -5 -5 -5 -6 -8 -9 -9 -10 -10 -10 -11 -11 -12 -13 -13 -14 -14 -15 -15 -15
5 5 5 4 4 4 3 3 2 2 2 1 1 -0 -1 -2 -3 -3 -4 -4 -4 -4 -5 -5 -5 -6 -8 -9 -9 -10 -10 -10 -11 -11 -12 -12 -13 -13 -14 -15 -15 -15 -15
5 5 4 4 3 3 2 2 2 2 1 0 -0 -1 -2 -3 -3 -4 -4 -3 -4 -4 -4 -4 -6 -8 -8 -9 -10 -9 -10 -10 -11 -12 -12 -13 -13 -14 -15 -15 -15 -15 -15
5 5 4 4 3 3 2 2 1 1 0 -1 -1 -1 -3 -2 -3 -3 -3 -4 -4 -4 -5 -7 -8 -8 -9 -10 -10 -10 -10 -11 -12 -12 -13 -13 -14 -14 -15 -15 -15 -15 -16
4 4 3 3 3 2 1 1 1 -0 -1 -1 -2 -2 -3 -3 -3 -3 -3 -3 -4 -5 -7 -8 -8 -8 -10 -11 -11 -10 -11 -11 -12 -13 -13 -14 -14 -15 -15 -15 -15 -16 -16
3 3 2 2 1 1 1 1 0 -0 -1 -1 -2 -3 -3 -3 -3 -3 -3 -4 -6 -7 -8 -8 -8 -9 -11 -11 -11 -11 -11 -12 -12 -13 -13 -14 -14 -15 -15 -15 -16 -16 -16
2 2 1 1 0 0 0 -0 -0 -1 -2 -2 -2 -3 -3 -3 -3 -4 -5 -6 -7 -8 -8 -8 -9 -10 -11 -11 -11 -11 -11 -12 -12 -13 -14 -14 -15 -15 -16 -16 -16 -16 -16
1 1 0 -0 -0 -0 -0 -0 -1 -2 -3 -3 -3 -3 -3 -3 -4 -5 -7 -7 -8 -8 -8 -10 -11 -11 -10 -11 -11 -12 -12 -12 -13 -14 -14 -15 -15 -16 -16 -16 -16 -16 -16
0 0 -0 -0 -1 -1 -1 -2 -3 -4 -4 -5 -4 -5 -5 -5 -6 -7 -7 -8 -8 -9 -10 -10 -11 -11 -11 -11 -11 -12 -12 -13 -14 -14 -15 -15 -15 -16 -16 -16 -16 -16 -17
-0 -0 -1 -1 -2 -2 -3 -5 -5 -5 -5 -5 -5 -5 -6 -7 -7 -8 -9 -9 -10 -10 -10 -10 -11 -11 -11 -12 -12 -12 -13 -14 -14 -15 -15 -16 -16 -16 -17 -17 -16 -17 -17
-1 -1 -2 -3 -4 -5 -4 -4 -4 -5 -6 -6 -6 -7 -7 -8 -8 -9 -9 -10 -10 -10 -10 -11 -11 -11 -12 -12 -13 -13 -13 -14 -14 -15 -16 -16 -16 -16 -17 -17 -17 -17 -17
-2 -3 -3 -5 -4 -4 -4 -5 -5 -7 -6 -7 -7 -8 -8 -8 -9 -9 -10 -10 -10 -11 -11 -11 -12 -12 -12 -13 -14 -14 -14 -15 -15 -15 -16 -16 -17 -17 -17 -17 -17 -17 -17
-3 -3 -5 -5 -5 -5 -6 -7 -7 -7 -7 -8 -8 -8 -9 -9 -10 -10 -10 -11 -11 -11 -12 -12 -13 -13 -13 -13 -14 -14 -15 -15 -16 -16 -16 -16 -16 -17 -17 -17 -17 -17 -17
-3 -5 -5 -5 -6 -6 -7 -7 -8 -8 -8 -9 -9 -10 -10 -10 -10 -11 -11 -11 -12 -12 -12 -13 -14 -14 -15 -15 -15 -16 -16 -16 -16 -17 -16 -17 -17 -17 -17 -17 -17 -17 -17